Hanford, WA
on Monday, November 5, 2012

Monday
Previous Day Next Day
Daily Summary
 ActualAverage (KMWH)Record (KMWH)
Temperature
Mean Temperature °F 42°F  
Max Temperature 65°F 52°F 63°F (2012)
Min Temperature 45°F 31°F 5°F (2003)
Degree Days
Heating Degree Days 10 23  
Month to date heating degree days 113  
Since 1 July heating degree days 750  
Cooling Degree Days 0 0  
Month to date cooling degree days 0  
Year to date cooling degree days 615  
Growing Degree Days5 (Base °F )  
Moisture
Dew Point 47°F   
Average Humidity 72    
Maximum Humidity 97    
Minimum Humidity 42    
Precipitation
Precipitation 0.00 in 0.04 in 1.25 in (1998)
Month to date precipitation 0.18  
Year to date precipitation 6.65  
Wind
Wind Speed 7 mph   
Max Wind Speed 12 mph   
Max Gust Speed mph   
Visibility 15 miles   
Events     

Key: T is trace of precipitation, MM is missing value
Source: NWS Daily Summary
Time(PST)TemperatureDew PointHumidity Pressure Visibility Wind DirectionWind SpeedGust SpeedPrecipitationEvents Conditions
12:50 AM 52.0°F 50.0°F 93% 30.21 in 15.0 miles North 6.9 mph - N/A   Overcast
1:50 AM 59.2°F 53.2°F 81% 30.21 in 15.0 miles West 11.5 mph - N/A   Mostly Cloudy
2:50 AM 55.8°F 51.3°F 85% 30.19 in 15.0 miles SE 4.6 mph - N/A   Overcast
3:50 AM 52.2°F 50.0°F 92% 30.18 in 15.0 miles North 4.6 mph - N/A   Mostly Cloudy
4:50 AM 49.6°F 48.9°F 97% 30.17 in 15.0 miles NNE 4.6 mph - N/A   Mostly Cloudy
5:50 AM 52.9°F 50.4°F 91% 30.17 in 15.0 miles NW 6.9 mph - N/A   Overcast
6:50 AM 52.5°F 49.8°F 91% 30.19 in 15.0 miles NW 4.6 mph - N/A   Overcast
7:50 AM 57.0°F 52.5°F 85% 30.21 in 15.0 miles ESE 3.5 mph - N/A   Overcast
8:50 AM 59.5°F 50.7°F 73% 30.23 in 15.0 miles NW 6.9 mph - N/A   Overcast
9:50 AM 61.3°F 49.8°F 66% 30.25 in 15.0 miles West 8.1 mph - N/A   Overcast
10:50 AM 62.2°F 51.1°F 67% 30.26 in 15.0 miles NNE 6.9 mph - N/A   Overcast
11:50 AM 63.3°F 46.6°F 54% 30.26 in 15.0 miles NW 11.5 mph - N/A   Overcast
12:50 PM 64.8°F 43.5°F 46% 30.25 in 15.0 miles WNW 11.5 mph - N/A   Overcast
1:50 PM 65.7°F 41.7°F 42% 30.24 in 15.0 miles WNW 6.9 mph - N/A   Overcast
2:50 PM 64.6°F 41.4°F 43% 30.24 in 15.0 miles NW 5.8 mph - N/A   Overcast
3:50 PM 63.1°F 41.5°F 45% 30.22 in 15.0 miles NW 9.2 mph - N/A   Overcast
4:50 PM 57.4°F 40.8°F 54% 30.22 in 15.0 miles North 4.6 mph - N/A   Overcast
5:50 PM 50.7°F 42.1°F 72% 30.22 in 15.0 miles West 3.5 mph - N/A   Overcast
6:50 PM 52.5°F 42.1°F 68% 30.20 in 15.0 miles SW 4.6 mph - N/A   Overcast
10:50 PM 45.1°F 41.2°F 86% 30.17 in 15.0 miles NW 5.8 mph - N/A   Overcast
11:50 PM 45.3°F 41.0°F 85% 30.17 in 15.0 miles West 4.6 mph - N/A   Overcast
Moon Phase
Nov. 05 Nov. 06 Nov. 13 Nov. 20 Nov. 28
Sunrise:06:46 AM (PST) Moon Rise:10:19 PM (PST)11/5
Sunset:04:36 PM (PST) Moon Set:12:09 PM (PST)11/5

Copyright © 2014 The Weather Underground, Inc.